Location: Eschertshofen
(49.3064°N, 11.5756°E)
Time: 01:40:21
(UTC+00:00)

Iridium 26 - Pass Details

Date: 01 October 2021
Orbit: 772 x 775 km, 86.4° (Epoch: 21 October)

Event Time Altitude Azimuth Distance (km) Brightness Sun altitude
Exits shadow 19:09:14 26° 47° (NE) 1,500 6.8 -22.7°
Drops below altitude 10° 19:12:03 10° 21° (NNE) 2,332 8.0 -23.2°
Sets 19:14:36 0° 12° (NNE) 3,264 8.9 -23.5°
